Location: Boltonville
(43.5274°N, 88.1004°W)
Time: 07:27:33
(UTC+00:00)

Envisat - Visible Passes

Search period start: 12 June 2026 00:00
Search period end: 22 June 2026 00:00
Orbit: 761 x 763 km, 98.4° (Epoch: 11 June)

Date Brightness Start Highest point End Pass type
(mag) Time Alt. Az. Time Alt. Az. Time Alt. Az.
12 Jun 4.4 07:46:47 10° NNE 07:51:18 32° E 07:55:11 13° SSE visible
12 Jun 4.0 09:25:41 10° N 09:30:10 33° WNW 09:34:39 10° SW visible
13 Jun 5.3 07:10:26 10° ENE 07:13:06 14° E 07:15:47 10° ESE visible
13 Jun 3.0 08:47:29 10° N 08:52:33 71° WNW 08:57:02 13° SSW visible
14 Jun 3.6 08:09:44 10° NNE 08:14:42 52° E 08:18:45 15° S visible
15 Jun 4.8 07:32:37 10° NE 07:36:39 24° E 07:40:29 11° SE visible
15 Jun 3.6 09:10:57 10° N 09:15:44 43° WNW 09:20:30 10° SW visible
16 Jun 3.0 08:32:55 10° NNE 08:38:01 86° ESE 08:42:19 15° SSW visible
17 Jun 4.1 07:55:22 10° NNE 08:00:06 38° E 08:04:03 14° SSE visible
18 Jun 5.2 07:18:38 10° NE 07:21:58 17° E 07:25:16 10° SE visible
18 Jun 3.2 08:56:17 10° N 09:01:16 59° WNW 09:05:53 12° SSW visible
19 Jun 3.3 08:18:25 10° NNE 08:23:28 63° E 08:27:36 15° S visible
20 Jun 4.5 07:41:07 10° NE 07:45:28 28° E 07:49:18 12° SSE visible
20 Jun 3.8 09:19:48 10° N 09:24:26 36° WNW 09:29:02 10° SW visible
21 Jun 5.4 07:05:06 10° ENE 07:07:14 13° E 07:09:23 10° ESE visible
21 Jun 3.0 08:41:40 10° N 08:46:46 80° WNW 08:51:08 14° SSW visible
